Theta_e
293 291 290 290 290 290 290 291 290 290 290 289 289 289 288 288 288 288 288 288 287 287 287 286 286 286 286 285 286 286 286 285 285 285 284 284 284 284 284 283 283 283
291 290 290 290 290 290 290 290 290 290 290 289 289 288 288 288 288 288 288 287 287 287 286 286 286 286 286 286 286 286 286 285 285 284 284 284 283 283 283 283 283 282
290 290 290 290 290 290 290 290 290 290 289 289 288 288 288 288 287 287 287 287 287 286 286 286 286 286 286 286 286 286 285 285 284 284 283 283 283 283 283 283 283 282
289 289 290 290 290 290 290 290 289 289 289 288 288 288 288 288 287 287 287 287 286 286 286 286 286 286 286 286 286 285 285 285 284 283 283 283 283 283 283 282 282 282
288 289 290 290 290 290 290 290 289 289 288 288 288 288 288 288 287 287 286 286 286 286 286 286 287 287 287 286 285 285 285 284 284 284 283 283 283 283 282 282 282 282
288 288 289 290 290 290 290 290 289 288 288 288 288 288 288 287 287 287 286 286 286 286 286 287 287 286 286 286 285 285 285 284 284 284 283 283 283 282 282 282 282 282
288 288 289 289 289 289 289 289 288 288 288 288 288 287 287 287 287 287 287 287 286 287 287 287 286 286 285 285 285 285 285 284 284 283 283 283 282 282 282 282 281 281
288 288 288 288 289 289 289 288 288 288 288 288 288 287 287 287 287 287 286 286 286 286 286 286 286 285 285 285 285 284 284 284 283 283 283 282 282 282 282 281 281 281
288 288 288 288 288 288 288 288 287 287 287 287 287 287 286 286 286 286 286 286 286 286 286 286 285 285 285 284 284 284 284 283 283 283 282 282 282 282 281 281 281 281
287 288 288 288 288 288 288 287 287 287 287 287 287 286 286 286 285 286 286 286 286 286 286 286 286 286 285 284 283 284 284 283 283 282 282 282 282 281 281 281 281 281
287 287 287 287 288 288 287 287 287 287 286 286 286 286 285 285 285 285 285 285 285 286 286 286 286 286 285 284 284 283 283 283 283 282 282 282 282 281 281 281 280 280
287 287 287 287 287 287 287 287 286 286 286 286 286 286 285 285 285 285 285 285 285 286 286 286 286 285 285 285 284 284 284 284 283 283 283 282 282 281 281 280 280 280
287 287 287 287 287 287 287 287 286 286 286 286 285 285 285 285 285 285 285 285 285 285 285 285 285 285 285 285 285 284 284 284 284 284 283 283 282 281 281 280 280 280
287 287 287 287 287 287 287 286 286 286 286 286 285 285 285 286 285 285 285 285 285 285 285 285 285 285 285 285 285 285 285 285 284 284 284 283 282 281 280 280 280 279
287 286 287 286 286 286 286 286 286 286 286 285 285 285 285 285 285 285 285 285 285 284 284 284 284 284 284 285 285 285 285 285 284 284 284 283 281 280 280 279 279 279
286 286 286 286 286 286 286 286 286 286 286 285 285 285 285 285 285 285 285 285 284 284 284 284 284 284 285 285 285 285 285 285 284 284 283 282 281 280 279 279 278 278
286 286 286 286 286 285 285 285 286 286 285 285 285 284 284 284 284 284 284 284 284 284 284 285 285 285 284 284 285 285 285 285 284 283 283 282 281 280 279 279 278 278
286 286 286 285 285 285 284 285 285 285 285 285 284 284 284 284 284 284 284 284 284 284 285 285 285 284 284 284 285 285 285 284 284 283 282 281 280 279 279 279 278 278
286 285 285 285 284 284 284 284 285 285 285 284 284 284 284 284 284 284 284 284 284 285 285 285 285 284 284 284 285 285 285 284 283 283 282 281 280 279 279 279 279 278
285 285 284 284 283 283 283 284 284 285 284 284 284 284 284 284 284 284 284 284 284 285 285 285 285 284 284 284 285 285 284 284 284 283 282 281 280 280 279 279 278 278
285 284 284 283 283 283 283 284 284 284 284 284 284 284 284 284 285 285 285 285 285 285 284 285 285 284 284 284 285 284 284 284 284 283 282 282 281 280 280 278 278 277
284 284 283 283 283 282 283 283 284 284 284 284 284 284 284 285 285 285 285 285 285 284 284 285 285 285 284 284 284 284 282 282 283 283 282 282 282 281 280 278 277 277
284 284 283 283 282 282 282 283 284 284 284 284 284 284 284 285 286 285 285 285 285 285 285 285 285 285 284 284 284 283 281 281 282 282 281 282 281 280 279 278 277 276
284 284 283 283 282 282 283 283 283 284 284 284 284 284 286 287 286 285 285 285 285 285 285 285 285 285 285 284 284 282 281 280 281 281 280 281 281 280 279 278 277 276
285 284 284 283 283 283 283 283 283 284 284 284 284 285 287 286 285 284 284 284 284 284 284 284 285 285 284 284 284 282 281 280 280 280 280 280 280 280 278 277 277 276
285 285 284 284 284 283 283 283 283 283 284 284 284 285 285 284 283 283 284 284 284 284 283 283 284 284 284 283 283 283 281 280 280 280 280 280 280 279 278 278 276 275
Wind_Speed
42 44 45 44 43 42 41 40 38 37 35 34 33 32 30 28 27 25 24 23 22 21 21 20 19 18 17 16 14 14 13 12 12 11 9 8 8 8 8 8 7 6
43 44 44 44 43 41 40 39 37 36 35 34 33 32 31 29 27 25 24 24 22 22 21 20 19 17 16 15 13 12 11 11 11 10 8 8 8 7 7 6 5 5
43 44 45 44 43 42 40 38 37 35 35 34 33 32 31 30 28 26 24 24 23 22 21 19 18 17 15 14 12 11 10 10 10 9 8 7 7 6 5 5 4 4
43 44 44 43 43 42 40 39 37 36 36 35 34 33 31 30 29 27 25 24 23 23 21 19 17 16 14 13 11 11 10 9 9 8 7 6 6 4 4 4 3 3
43 44 44 43 42 41 40 40 39 38 37 36 35 33 32 31 30 28 27 25 24 23 21 19 17 15 14 13 11 10 10 9 8 7 5 5 5 4 4 4 3 3
42 43 43 43 42 42 40 40 39 39 38 37 36 34 33 32 30 29 28 26 24 22 21 19 18 16 15 13 12 10 9 8 8 7 5 5 5 5 4 4 3 3
42 42 43 43 42 41 41 40 40 39 38 37 36 35 34 33 31 30 28 26 24 23 21 20 18 17 16 14 13 11 10 9 8 7 6 5 5 5 4 4 4 4
43 43 43 43 42 42 41 41 40 39 38 37 36 35 34 33 32 30 28 27 25 23 21 20 18 17 15 13 12 12 11 9 8 7 7 6 6 5 4 4 4 5
43 43 43 43 43 42 41 41 40 39 38 37 36 35 33 32 30 30 29 27 26 24 22 20 18 16 15 13 12 11 10 9 8 8 7 6 5 5 5 5 6 6
43 43 43 43 43 43 42 41 40 39 38 37 36 35 33 31 29 28 28 27 26 25 23 21 19 17 16 14 12 11 9 9 9 8 7 5 5 5 6 7 7 7
43 44 44 44 44 43 42 41 40 39 39 37 36 34 32 31 29 27 27 26 25 24 23 22 20 18 17 15 14 12 10 9 8 7 6 5 5 6 7 8 8 8
44 44 45 45 45 44 42 41 40 39 39 37 36 34 33 31 29 28 26 25 24 23 23 22 21 19 17 16 14 12 10 9 8 6 5 5 6 7 8 9 9 9
44 45 45 45 45 44 43 42 41 40 39 37 35 34 33 31 30 28 26 25 24 23 22 21 20 19 18 16 14 12 11 9 8 7 6 6 7 9 9 10 10 9
44 44 44 44 44 44 42 42 41 40 38 36 35 34 33 31 30 29 27 26 24 23 22 21 20 20 18 17 15 13 11 10 8 7 7 8 9 10 10 10 10 10
40 41 42 42 42 42 42 42 41 40 38 37 35 34 32 32 31 29 28 27 25 23 22 22 21 19 18 16 15 14 12 10 9 8 8 9 10 10 10 10 10 10
37 38 39 40 41 42 42 42 41 40 39 38 36 34 33 32 31 30 28 27 26 25 24 23 21 19 18 16 15 15 13 11 9 10 10 10 10 10 11 11 11 11
35 36 38 39 41 41 41 41 41 40 39 38 36 35 34 32 31 30 29 28 27 26 25 23 22 20 19 18 17 15 13 12 11 11 11 11 11 11 11 11 11 11
37 37 38 39 40 40 40 40 40 40 39 38 37 36 34 33 31 30 30 29 27 27 26 24 22 21 20 20 19 16 14 13 13 13 12 12 12 12 12 11 11 10
37 37 37 38 39 39 39 39 40 40 39 38 37 36 34 33 32 31 30 30 29 28 27 25 24 23 22 21 19 17 16 15 14 14 13 13 13 13 12 11 11 11
36 37 37 37 37 37 38 39 40 40 39 38 37 36 35 34 33 32 31 31 30 29 27 26 25 25 24 22 20 18 17 16 16 16 15 14 13 13 12 11 11 11
35 36 36 36 36 37 39 40 40 40 40 39 38 37 36 35 34 34 33 33 32 30 29 28 27 26 25 23 21 19 18 18 18 16 15 14 14 13 12 11 11 11
35 36 36 36 37 38 39 40 41 41 41 40 39 38 36 35 35 36 36 35 34 32 31 31 29 28 27 25 23 21 20 20 19 18 16 16 15 14 13 12 12 12
36 36 36 36 37 38 39 41 42 42 42 41 40 39 38 37 38 39 39 37 36 35 35 33 31 30 28 26 24 23 23 23 22 21 19 18 17 16 14 14 13 13
35 36 36 37 38 40 41 42 43 43 43 43 42 41 40 41 42 42 41 39 38 38 37 35 33 31 30 29 26 25 25 25 24 23 22 21 19 18 17 16 15 14
36 37 38 39 40 42 43 43 43 43 43 43 43 42 43 44 45 44 43 42 40 39 38 37 35 33 32 31 29 27 26 26 26 25 25 24 22 20 19 18 16 15
38 39 40 41 42 42 42 42 42 42 42 43 44 44 44 44 44 44 43 43 41 41 40 38 36 34 33 32 30 28 28 28 28 28 26 25 24 22 20 19 18 16
Wind_Direction
171 168 166 165 163 162 161 160 158 156 154 152 150 149 148 146 145 144 142 139 137 134 132 131 128 126 124 122 118 113 110 109 110 113 115 113 113 111 107 107 107 104
172 170 168 167 166 165 164 162 160 158 156 155 154 152 151 149 148 148 146 143 141 138 135 134 131 128 125 122 119 116 117 119 120 125 127 121 120 121 116 116 117 114
173 172 171 170 169 167 166 164 162 161 159 158 157 155 154 152 152 152 150 147 144 141 139 137 133 130 126 124 125 126 127 130 128 130 135 129 126 129 125 124 128 129
176 175 174 173 172 170 168 166 165 164 163 162 160 159 157 155 156 155 153 151 147 144 142 140 136 133 132 133 136 138 138 138 134 135 145 143 139 143 141 141 148 147
179 178 176 176 174 172 171 169 168 168 166 165 163 162 160 159 159 158 156 154 151 147 145 143 141 141 143 146 148 148 146 147 146 148 161 163 157 164 165 165 174 169
181 180 179 178 177 175 174 173 172 171 170 168 167 166 164 162 162 160 158 156 153 151 150 149 150 151 152 155 156 155 154 159 163 166 177 182 177 180 182 187 201 199
184 183 181 181 179 178 177 176 176 175 173 172 170 169 168 166 164 162 160 157 156 156 156 156 158 158 157 160 162 165 168 170 175 179 188 195 192 193 194 201 217 220
186 185 184 183 182 181 180 179 179 178 176 176 174 172 171 169 167 164 161 161 160 160 160 161 161 160 161 166 171 175 176 175 178 186 196 202 199 203 207 214 231 238
188 187 186 185 184 183 183 183 182 181 180 180 177 175 174 173 170 166 165 165 164 163 163 163 163 163 165 172 179 181 179 179 183 189 198 205 209 219 227 231 238 244
190 189 188 187 186 186 186 186 185 183 183 183 180 177 176 175 174 171 169 168 166 165 166 166 166 168 171 175 181 184 182 182 185 190 197 207 219 231 238 241 242 245
191 191 190 189 188 188 188 188 187 186 186 185 183 179 177 177 176 175 174 172 170 169 169 169 169 171 173 175 180 184 183 184 188 192 200 211 229 241 244 245 246 250
193 192 191 190 190 190 190 190 189 189 188 187 185 182 180 179 178 177 177 176 175 174 173 172 171 173 175 175 178 181 183 188 192 198 209 222 237 245 248 249 250 253
194 193 192 191 192 192 192 191 191 191 190 189 188 185 182 181 179 179 180 180 180 178 177 176 174 175 177 177 177 182 187 191 193 199 214 227 238 245 246 249 253 254
195 194 193 193 193 193 193 193 193 193 192 190 190 189 186 184 182 181 182 183 183 182 180 180 180 180 180 178 178 183 189 191 193 200 213 224 234 242 244 247 252 254
196 195 194 193 194 194 194 194 194 194 193 193 192 191 189 187 186 185 185 185 185 185 185 186 186 185 184 182 181 184 187 187 193 203 214 223 230 237 243 245 248 251
197 195 195 194 195 196 196 196 195 195 195 195 194 193 192 191 189 187 188 188 187 188 190 189 188 188 188 187 187 188 187 186 195 207 214 221 227 232 238 242 244 248
197 197 196 196 196 197 197 197 196 196 196 196 196 195 195 193 191 190 191 192 191 191 192 191 190 191 192 192 192 190 187 189 200 211 215 219 225 229 234 239 241 244
198 198 198 198 198 198 198 197 197 197 197 198 197 197 197 195 194 194 194 195 195 195 195 194 193 195 197 198 198 194 191 197 207 214 218 220 224 228 232 237 241 243
198 198 198 199 199 198 198 198 198 199 199 200 200 199 199 197 196 197 198 198 198 198 198 198 197 199 202 202 201 198 198 205 214 219 223 223 224 228 232 237 242 245
197 197 198 199 199 199 199 199 200 201 201 202 202 201 200 199 199 200 202 202 202 201 201 201 201 204 207 206 205 205 207 212 217 221 225 229 231 234 237 239 244 248
197 197 197 199 200 200 200 200 201 202 203 203 204 204 203 201 201 203 205 205 205 204 204 204 205 207 210 210 209 210 215 220 222 224 229 237 241 244 246 247 249 253
198 198 198 199 200 201 202 202 202 203 204 205 206 206 205 204 205 208 209 208 207 207 207 207 208 210 212 213 213 214 217 224 229 232 236 242 246 249 252 254 255 258
200 199 199 199 201 202 203 204 204 205 206 206 207 206 205 207 210 211 211 210 209 209 210 209 209 211 213 215 216 217 218 223 230 235 239 243 248 251 254 256 258 258
201 201 201 201 202 205 206 206 207 207 208 208 208 208 210 212 214 214 214 213 212 212 212 211 211 213 215 217 218 220 221 225 230 235 239 244 248 251 254 257 256 254
204 205 205 205 206 208 208 208 208 208 210 211 211 212 215 216 215 215 216 215 215 216 217 216 215 215 217 219 220 221 224 228 232 235 239 244 248 251 254 256 253 251
207 208 209 209 210 210 210 210 211 211 212 212 213 214 217 217 216 217 218 218 218 219 220 220 219 218 219 221 222 223 226 230 233 235 239 244 247 250 253 254 253 251